Time,TemperatureF,DewpointF,PressureIn,WindDirection,WindDirectionDegrees,WindSpeedMPH,WindSpeedGustMPH,Humidity,HourlyPrecipIn,Conditions,Clouds,dailyrainin,SolarRadiationWatts/m^2,SoftwareType,DateUTC
2013-02-04 00:29:00,23.0,19.7,29.72,NW,320,0.0,2.0,87,0.00,CLR,,0.00,0.0,WeatherDisplay:10.37,2013-02-04 05:29:00,
2013-02-04 00:59:00,22.7,19.9,29.72,NW,319,0.0,1.0,89,0.00,CLR,,0.00,0.0,WeatherDisplay:10.37,2013-02-04 05:59:00,
2013-02-04 01:29:00,22.0,19.5,29.72,NW,320,0.0,0.0,90,0.00,CLR,,0.00,0.0,WeatherDisplay:10.37,2013-02-04 06:29:00,
2013-02-04 01:59:00,21.5,19.3,29.72,NW,319,0.0,1.0,91,0.00,CLR,,0.00,0.0,WeatherDisplay:10.37,2013-02-04 06:59:00,
2013-02-04 02:29:00,20.0,17.8,29.72,NW,320,0.0,1.0,91,0.00,CLR,,0.00,0.0,WeatherDisplay:10.37,2013-02-04 07:29:00,
2013-02-04 02:59:00,19.6,17.6,29.71,NW,320,0.0,1.0,92,0.00,CLR,,0.00,0.0,WeatherDisplay:10.37,2013-02-04 07:59:00,
2013-02-04 03:29:00,19.4,17.5,29.70,NW,319,0.0,2.0,92,0.00,CLR,,0.00,0.0,WeatherDisplay:10.37,2013-02-04 08:29:00,
2013-02-04 03:59:00,18.5,15.8,29.71,NW,320,0.0,2.0,89,0.00,CLR,,0.00,0.0,WeatherDisplay:10.37,2013-02-04 08:59:00,
2013-02-04 04:29:00,18.0,14.8,29.71,NW,319,0.0,1.0,87,0.00,CLR,,0.00,0.0,WeatherDisplay:10.37,2013-02-04 09:29:00,
2013-02-04 04:59:00,18.5,15.0,29.72,NW,319,0.0,3.0,86,0.00,CLR,,0.00,0.0,WeatherDisplay:10.37,2013-02-04 09:59:00,
2013-02-04 05:29:00,18.2,14.4,29.72,NW,313,0.0,2.0,85,0.00,CLR,,0.00,0.0,WeatherDisplay:10.37,2013-02-04 10:29:00,
2013-02-04 05:59:00,17.4,13.3,29.73,WNW,299,0.0,3.0,84,0.00,CLR,,0.00,0.0,WeatherDisplay:10.37,2013-02-04 10:59:00,
2013-02-04 06:29:00,16.3,12.6,29.74,WNW,299,0.0,1.0,85,0.00,OVC,,0.00,0.0,WeatherDisplay:10.37,2013-02-04 11:29:00,
2013-02-04 06:59:00,17.3,13.6,29.74,West,273,0.0,6.0,85,0.00,CLR,,0.00,7.0,WeatherDisplay:10.37,2013-02-04 11:59:00,
2013-02-04 07:29:00,19.7,14.8,29.75,SW,232,1.0,6.0,81,0.00,FEW,,0.00,53.0,WeatherDisplay:10.37,2013-02-04 12:29:00,
2013-02-04 07:59:00,21.1,15.3,29.76,West,264,2.0,7.0,78,0.00,CLR,,0.00,156.0,WeatherDisplay:10.37,2013-02-04 12:59:00,
2013-02-04 08:29:00,22.5,15.8,29.76,WSW,251,0.0,8.0,75,0.00,CLR,,0.00,220.0,WeatherDisplay:10.37,2013-02-04 13:29:00,
2013-02-04 08:59:00,23.7,15.3,29.76,WSW,240,0.0,10.0,70,0.00,CLR,,0.00,295.0,WeatherDisplay:10.37,2013-02-04 13:59:00,
2013-02-04 09:29:00,24.8,14.0,29.76,West,273,6.0,12.0,63,0.00,CLR,,0.00,387.0,WeatherDisplay:10.37,2013-02-04 14:29:00,
2013-02-04 09:59:00,25.5,13.9,29.77,West,271,8.0,16.0,61,0.00,CLR,,0.00,438.0,WeatherDisplay:10.37,2013-02-04 14:59:00,
2013-02-04 10:29:00,25.6,13.6,29.77,West,270,3.0,13.0,60,0.00,CLR,,0.00,482.0,WeatherDisplay:10.37,2013-02-04 15:29:00,
2013-02-04 10:59:00,26.6,13.4,29.77,WSW,243,0.0,13.0,57,0.00,CLR,,0.00,654.0,WeatherDisplay:10.37,2013-02-04 15:59:00,
2013-02-04 11:29:00,26.2,11.8,29.77,West,277,2.0,13.0,54,0.00,BKN,,0.00,151.0,WeatherDisplay:10.37,2013-02-04 16:29:00,
2013-02-04 11:59:00,27.1,11.8,29.76,West,266,1.0,14.0,52,0.00,FEW,,0.00,160.0,WeatherDisplay:10.37,2013-02-04 16:59:00,
2013-02-04 12:29:00,27.8,12.4,29.75,West,269,2.0,12.0,52,0.00,FEW,,0.00,626.0,WeatherDisplay:10.37,2013-02-04 17:29:00,
2013-02-04 12:59:00,27.0,11.7,29.75,West,266,3.0,13.0,52,0.00,SCT,,0.00,70.0,WeatherDisplay:10.37,2013-02-04 17:59:00,
2013-02-04 13:29:00,27.3,13.7,29.75,SSW,213,5.0,10.0,56,0.00,BKN,,0.00,211.0,WeatherDisplay:10.37,2013-02-04 18:29:00,
2013-02-04 13:59:00,28.2,13.6,29.75,WSW,250,1.0,15.0,54,0.00,CLR,,0.00,580.0,WeatherDisplay:10.37,2013-02-04 18:59:00,
2013-02-04 14:29:00,27.7,11.5,29.75,West,269,6.0,15.0,50,0.00,SCT,,0.00,223.0,WeatherDisplay:10.37,2013-02-04 19:29:00,
2013-02-04 14:59:00,27.4,10.7,29.77,SW,218,5.0,12.0,49,0.00,BKN,,0.00,67.0,WeatherDisplay:10.37,2013-02-04 19:59:00,
2013-02-04 15:29:00,27.1,11.8,29.77,West,260,1.0,12.0,52,0.00,BKN,,0.00,51.0,WeatherDisplay:10.37,2013-02-04 20:29:00,
2013-02-04 15:59:00,27.1,11.8,29.77,West,260,3.0,12.0,52,0.00,BKN,,0.00,37.0,WeatherDisplay:10.37,2013-02-04 20:59:00,
2013-02-04 16:29:00,26.2,10.1,29.78,WSW,238,5.0,10.0,50,0.00,BKN,,0.00,18.0,WeatherDisplay:10.37,2013-02-04 21:29:00,
2013-02-04 16:59:00,25.2,10.0,29.78,WSW,251,2.0,14.0,52,0.00,OVC,,0.00,5.0,WeatherDisplay:10.37,2013-02-04 21:59:00,
2013-02-04 17:29:00,24.4,9.7,29.80,West,263,5.0,12.0,53,0.00,OVC,,0.00,0.0,WeatherDisplay:10.37,2013-02-04 22:29:00,
2013-02-04 17:59:00,23.8,10.4,29.82,WSW,254,3.0,12.0,56,0.00,CLR,,0.00,0.0,WeatherDisplay:10.37,2013-02-04 22:59:00,
2013-02-04 18:29:00,22.9,9.9,29.83,WSW,248,0.0,9.0,57,0.00,CLR,,0.00,0.0,WeatherDisplay:10.37,2013-02-04 23:29:00,
2013-02-04 18:59:00,22.1,10.0,29.85,WSW,248,1.0,9.0,59,0.00,CLR,,0.00,0.0,WeatherDisplay:10.37,2013-02-04 23:59:00,
2013-02-04 19:29:00,22.2,8.9,29.86,SW,226,2.0,12.0,56,0.00,CLR,,0.00,0.0,WeatherDisplay:10.37,2013-02-05 00:29:00,
2013-02-04 19:59:00,22.3,8.2,29.86,WSW,254,1.0,9.0,54,0.00,CLR,,0.00,0.0,WeatherDisplay:10.37,2013-02-05 00:59:00,
2013-02-04 20:29:00,22.0,7.9,29.88,WSW,252,1.0,13.0,54,0.00,CLR,,0.00,0.0,WeatherDisplay:10.37,2013-02-05 01:29:00,
2013-02-04 20:59:00,21.6,7.9,29.88,West,274,2.0,10.0,55,0.00,CLR,,0.00,0.0,WeatherDisplay:10.37,2013-02-05 01:59:00,
2013-02-04 21:29:00,21.1,8.2,29.89,West,264,0.0,8.0,57,0.00,CLR,,0.00,0.0,WeatherDisplay:10.37,2013-02-05 02:29:00,
2013-02-04 21:59:00,20.5,8.8,29.90,SSW,195,0.0,8.0,60,0.00,CLR,,0.00,0.0,WeatherDisplay:10.37,2013-02-05 02:59:00,
2013-02-04 22:29:00,20.3,8.6,29.91,WSW,252,1.0,8.0,60,0.00,CLR,,0.00,0.0,WeatherDisplay:10.37,2013-02-05 03:29:00,
2013-02-04 22:59:00,19.6,8.7,29.91,SW,231,0.0,4.0,62,0.00,CLR,,0.00,0.0,WeatherDisplay:10.37,2013-02-05 03:59:00,
2013-02-04 23:29:00,19.1,8.2,29.91,SW,229,0.0,8.0,62,0.00,CLR,,0.00,0.0,WeatherDisplay:10.37,2013-02-05 04:29:00,